^^
Grace C. Lehan Memorial Weather Station Historical Data
Daily Summary for August 27, 2021 Units:  Metric    English   Both
Daily Weekly Monthly Yearly
  High: Low: Average:
Temperature: 31.4 °C 22.1 °C 26.1 °C
Dew Point: 24.7 °C 20.6 °C 22.4 °C
Humidity: 92% 64.7% 81%
Wind Speed: 6.4km/h 0km/h 0.8km/h
Wind Gust: 20.9km/h - -
Wind- - SW
Pressure: 1020.5 hPa 1018.5 hPa -
Precipitation: 0 mm    
 
 
Tabular Data for August 27, 2021
Time Temperature Dew Point Pressure Wind Wind Speed Wind Gust Humidity Rainfall Rate (Hourly) solar
00:04 23.3 °C 21.2 °C 1020.2 hPa Calm     88% 0 mm 0 W/m2
00:09 23.3 °C 21.2 °C 1020.2 hPa Calm   1.6 km/h 88% 0 mm 0 W/m2
00:14 23.3 °C 21.2 °C 1020.2 hPa Calm   1.6 km/h 88% 0 mm 0 W/m2
00:19 23.2 °C 21.2 °C 1020.2 hPa Calm   1.6 km/h 88% 0 mm 0 W/m2
00:24 23.2 °C 21.1 °C 1020.2 hPa SW 0.3 km/h 4.8 km/h 88% 0 mm 0 W/m2
00:29 23.2 °C 21.1 °C 1020.2 hPa SW 0.2 km/h 4.8 km/h 88% 0 mm 0 W/m2
00:34 23.2 °C 21.1 °C 1019.9 hPa Calm   4.8 km/h 88% 0 mm 0 W/m2
00:39 23.1 °C 21.1 °C 1019.9 hPa Calm     88.2% 0 mm 0 W/m2
00:44 23.1 °C 21.2 °C 1019.9 hPa SW 0.2 km/h 1.6 km/h 89% 0 mm 0 W/m2
00:49 23 °C 21.1 °C 1019.9 hPa Calm   1.6 km/h 89% 0 mm 0 W/m2
00:54 22.9 °C 21.1 °C 1019.9 hPa Calm   1.6 km/h 89% 0 mm 0 W/m2
00:59 22.9 °C 21 °C 1019.9 hPa Calm   1.6 km/h 89% 0 mm 0 W/m2
01:04 22.8 °C 20.9 °C 1020.2 hPa Calm   1.6 km/h 89% 0 mm 0 W/m2
01:09 22.8 °C 20.9 °C 1020.2 hPa Calm     89% 0 mm 0 W/m2
01:14 22.8 °C 20.9 °C 1019.9 hPa Calm     89% 0 mm 0 W/m2
01:19 22.7 °C 20.8 °C 1019.9 hPa Calm     89% 0 mm 0 W/m2
01:24 22.7 °C 20.8 °C 1019.9 hPa Calm     89% 0 mm 0 W/m2
01:29 22.6 °C 20.7 °C 1019.9 hPa Calm     89.1% 0 mm 0 W/m2
01:34 22.6 °C 20.8 °C 1019.9 hPa Calm   1.6 km/h 90% 0 mm 0 W/m2
01:39 22.6 °C 20.8 °C 1019.9 hPa Calm   1.6 km/h 90% 0 mm 0 W/m2
01:44 22.5 °C 20.8 °C 1019.9 hPa Calm   1.6 km/h 90% 0 mm 0 W/m2
01:49 22.5 °C 20.8 °C 1019.9 hPa Calm   1.6 km/h 90% 0 mm 0 W/m2
01:54 22.5 °C 20.8 °C 1019.9 hPa SW 0.5 km/h 11.3 km/h 90% 0 mm 0 W/m2
01:59 22.5 °C 20.8 °C 1019.9 hPa Calm   11.3 km/h 90% 0 mm 0 W/m2
02:04 22.4 °C 20.7 °C 1019.9 hPa Calm   11.3 km/h 90% 0 mm 0 W/m2
02:09 22.4 °C 20.7 °C 1019.9 hPa Calm     90% 0 mm 0 W/m2
02:14 22.4 °C 20.7 °C 1019.9 hPa Calm     90% 0 mm 0 W/m2
02:19 22.4 °C 20.7 °C 1019.9 hPa SW 0.2 km/h 3.2 km/h 90% 0 mm 0 W/m2
02:24 22.3 °C 20.8 °C 1019.9 hPa Calm   3.2 km/h 90.8% 0 mm 0 W/m2
02:29 22.3 °C 20.8 °C 1019.9 hPa Calm   3.2 km/h 91% 0 mm 0 W/m2
02:34 22.3 °C 20.8 °C 1019.9 hPa Calm   3.2 km/h 91% 0 mm 0 W/m2
02:39 22.3 °C 20.7 °C 1019.9 hPa Calm     91% 0 mm 0 W/m2
02:44 22.3 °C 20.7 °C 1019.9 hPa Calm     91% 0 mm 0 W/m2
02:49 22.2 °C 20.7 °C 1019.9 hPa Calm     91% 0 mm 0 W/m2
02:54 22.2 °C 20.7 °C 1019.9 hPa Calm     91% 0 mm 0 W/m2
02:59 22.2 °C 20.6 °C 1019.9 hPa Calm     91% 0 mm 0 W/m2
03:04 22.2 °C 20.6 °C 1019.9 hPa Calm     91% 0 mm 0 W/m2
03:09 22.2 °C 20.6 °C 1019.9 hPa Calm     91% 0 mm 0 W/m2
03:14 22.1 °C 20.6 °C 1019.9 hPa Calm     91.1% 0 mm 0 W/m2
03:19 22.1 °C 20.8 °C 1019.9 hPa Calm     92% 0 mm 0 W/m2
03:24 22.1 °C 20.8 °C 1019.9 hPa Calm     92% 0 mm 0 W/m2
03:29 22.1 °C 20.8 °C 1019.9 hPa Calm     92% 0 mm 0 W/m2
03:34 22.1 °C 20.8 °C 1019.9 hPa Calm     92% 0 mm 0 W/m2
03:39 22.1 °C 20.8 °C 1019.9 hPa Calm     92% 0 mm 0 W/m2
03:44 22.2 °C 20.8 °C 1019.5 hPa Calm     92% 0 mm 0 W/m2
03:49 22.2 °C 20.8 °C 1019.5 hPa Calm     92% 0 mm 0 W/m2
03:54 22.2 °C 20.8 °C 1019.5 hPa Calm     92% 0 mm 0 W/m2
03:59 22.2 °C 20.8 °C 1019.5 hPa Calm     92% 0 mm 0 W/m2
04:00 22.2 °C 20.8 °C 1019.5 hPa Calm     92% 0 mm 0 W/m2
04:09 22.2 °C 20.8 °C 1019.5 hPa Calm     92% 0 mm 0 W/m2
04:14 22.2 °C 20.8 °C 1019.9 hPa Calm     92% 0 mm 0 W/m2
04:19 22.2 °C 20.8 °C 1019.9 hPa Calm     92% 0 mm 0 W/m2
04:24 22.2 °C 20.8 °C 1019.9 hPa Calm     92% 0 mm 0 W/m2
04:29 22.2 °C 20.8 °C 1019.9 hPa Calm     92% 0 mm 0 W/m2
04:34 22.2 °C 20.9 °C 1019.9 hPa SW 0.2 km/h 3.2 km/h 92% 0 mm 0 W/m2
04:39 22.2 °C 20.9 °C 1019.9 hPa Calm   3.2 km/h 92% 0 mm 0 W/m2
04:44 22.3 °C 20.9 °C 1019.9 hPa Calm   3.2 km/h 92% 0 mm 0 W/m2
04:49 22.3 °C 20.9 °C 1019.9 hPa Calm   3.2 km/h 92% 0 mm 0 W/m2
04:54 22.3 °C 21 °C 1019.9 hPa Calm   3.2 km/h 92% 0 mm 0 W/m2
04:59 22.3 °C 21 °C 1019.9 hPa Calm   3.2 km/h 92% 0 mm 0 W/m2
05:04 22.4 °C 21.1 °C 1019.9 hPa Calm   3.2 km/h 92% 0 mm 0 W/m2
05:09 22.4 °C 21.1 °C 1019.9 hPa SW 0.2 km/h 3.2 km/h 92% 0 mm 0 W/m2
05:14 22.4 °C 21.1 °C 1019.9 hPa Calm   3.2 km/h 92% 0 mm 0 W/m2
05:19 22.5 °C 21.1 °C 1019.9 hPa SW 0.2 km/h 3.2 km/h 92% 0 mm 0 W/m2
05:24 22.5 °C 21.2 °C 1019.9 hPa Calm   3.2 km/h 92% 0 mm 5 W/m2
05:29 22.5 °C 21.2 °C 1019.9 hPa Calm   3.2 km/h 92% 0 mm 9 W/m2
05:34 22.5 °C 21.2 °C 1019.9 hPa Calm   3.2 km/h 92% 0 mm 9 W/m2
05:39 22.6 °C 21.2 °C 1020.2 hPa Calm     92% 0 mm 14 W/m2
05:44 22.6 °C 21.2 °C 1019.9 hPa Calm     92% 0 mm 18 W/m2
05:49 22.6 °C 21.2 °C 1019.9 hPa SW 0.2 km/h 3.2 km/h 92% 0 mm 21 W/m2
05:54 22.6 °C 21.2 °C 1019.9 hPa Calm   3.2 km/h 92% 0 mm 23 W/m2
05:59 22.6 °C 21.2 °C 1019.9 hPa Calm   3.2 km/h 92% 0 mm 28 W/m2
06:04 22.6 °C 21.2 °C 1020.2 hPa Calm   3.2 km/h 92% 0 mm 26 W/m2
06:09 22.6 °C 21.2 °C 1020.2 hPa Calm   3.2 km/h 92% 0 mm 30 W/m2
06:14 22.6 °C 21.2 °C 1020.2 hPa Calm   3.2 km/h 92% 0 mm 33 W/m2
06:19 22.6 °C 21.2 °C 1019.9 hPa Calm   3.2 km/h 92% 0 mm 39 W/m2
06:24 22.6 °C 21.2 °C 1020.2 hPa Calm   3.2 km/h 92% 0 mm 47 W/m2
06:29 22.6 °C 21.3 °C 1020.2 hPa Calm   3.2 km/h 92% 0 mm 51 W/m2
06:34 22.7 °C 21.3 °C 1020.2 hPa SW 0.2 km/h 3.2 km/h 92% 0 mm 62 W/m2
06:39 22.7 °C 21.3 °C 1020.2 hPa Calm   3.2 km/h 92% 0 mm 62 W/m2
06:44 22.7 °C 21.4 °C 1020.2 hPa Calm   3.2 km/h 92% 0 mm 70 W/m2
06:49 22.8 °C 21.4 °C 1020.2 hPa Calm   3.2 km/h 92% 0 mm 67 W/m2
06:54 22.8 °C 21.4 °C 1020.2 hPa Calm   3.2 km/h 91.5% 0 mm 56 W/m2
06:59 22.9 °C 21.3 °C 1020.2 hPa Calm   3.2 km/h 91.2% 0 mm 58 W/m2
07:04 22.9 °C 21.4 °C 1020.2 hPa Calm   3.2 km/h 91% 0 mm 65 W/m2
07:09 23 °C 21.4 °C 1020.5 hPa Calm     91% 0 mm 58 W/m2
07:14 23.1 °C 21.5 °C 1020.5 hPa Calm     91% 0 mm 67 W/m2
07:19 23.1 °C 21.6 °C 1020.5 hPa Calm     91% 0 mm 67 W/m2
07:24 23.2 °C 21.6 °C 1020.5 hPa Calm     91% 0 mm 95 W/m2
07:29 23.2 °C 21.7 °C 1020.2 hPa Calm   1.6 km/h 91% 0 mm 167 W/m2
07:34 23.3 °C 21.8 °C 1020.2 hPa Calm   1.6 km/h 91% 0 mm 167 W/m2
07:39 23.4 °C 21.9 °C 1020.2 hPa Calm   1.6 km/h 91% 0 mm 111 W/m2
07:44 23.6 °C 21.9 °C 1020.2 hPa Calm   1.6 km/h 90.4% 0 mm 107 W/m2
07:49 23.7 °C 21.9 °C 1020.2 hPa SW 0.2 km/h 3.2 km/h 90% 0 mm 90 W/m2
07:54 23.7 °C 21.9 °C 1020.2 hPa Calm   3.2 km/h 89.8% 0 mm 69 W/m2
07:59 23.8 °C 21.9 °C 1020.5 hPa SW 0.2 km/h 4.8 km/h 89.2% 0 mm 86 W/m2
08:00 23.8 °C 21.8 °C 1020.2 hPa Calm   4.8 km/h 89% 0 mm 86 W/m2
08:09 23.8 °C 21.9 °C 1020.5 hPa Calm   1.6 km/h 89% 0 mm 121 W/m2
08:14 23.9 °C 22 °C 1020.2 hPa Calm   1.6 km/h 89% 0 mm 151 W/m2
08:19 24.1 °C 22.1 °C 1020.2 hPa Calm   1.6 km/h 89% 0 mm 190 W/m2
08:24 24.2 °C 22.2 °C 1020.2 hPa Calm   1.6 km/h 88.5% 0 mm 225 W/m2
08:29 24.4 °C 22.3 °C 1020.2 hPa Calm   1.6 km/h 88.4% 0 mm 316 W/m2
08:34 24.7 °C 22.4 °C 1020.2 hPa SW 1.1 km/h 9.7 km/h 87.5% 0 mm 313 W/m2
08:39 24.9 °C 22.4 °C 1020.2 hPa Calm   9.7 km/h 86.2% 0 mm 302 W/m2
08:44 25.2 °C 22.5 °C 1020.2 hPa WSW 1 km/h 16.1 km/h 85.3% 0 mm 401 W/m2
08:49 25.4 °C 22.6 °C 1020.2 hPa Calm   16.1 km/h 84.5% 0 mm 294 W/m2
08:54 25.7 °C 22.8 °C 1020.2 hPa WSW 0.3 km/h 16.1 km/h 84.2% 0 mm 343 W/m2
08:59 25.8 °C 22.7 °C 1020.2 hPa Calm   16.1 km/h 83% 0 mm 181 W/m2
09:04 25.9 °C 22.6 °C 1020.2 hPa Calm   16.1 km/h 82.1% 0 mm 234 W/m2
09:09 25.9 °C 22.6 °C 1020.2 hPa Calm     82% 0 mm 267 W/m2
09:14 26 °C 22.7 °C 1020.2 hPa WSW 0.3 km/h 6.4 km/h 82% 0 mm 251 W/m2
09:19 26.1 °C 22.6 °C 1020.5 hPa SW 1.1 km/h 9.7 km/h 81.4% 0 mm 206 W/m2
09:24 26.1 °C 22.6 °C 1020.2 hPa SSW 0.2 km/h 9.7 km/h 81% 0 mm 190 W/m2
09:29 26.1 °C 22.6 °C 1020.2 hPa SSW 1 km/h 9.7 km/h 81.4% 0 mm 272 W/m2
09:34 26.1 °C 22.6 °C 1020.2 hPa SSW 0.6 km/h 9.7 km/h 81.2% 0 mm 257 W/m2
09:39 26.2 °C 22.7 °C 1020.2 hPa SSW 1 km/h 11.3 km/h 81.2% 0 mm 260 W/m2
09:44 26.2 °C 22.7 °C 1020.2 hPa Calm   11.3 km/h 80.9% 0 mm 327 W/m2
09:49 26.3 °C 22.7 °C 1020.2 hPa SSW 0.3 km/h 11.3 km/h 80.5% 0 mm 513 W/m2
09:54 26.5 °C 22.9 °C 1020.2 hPa SW 0.6 km/h 11.3 km/h 80.5% 0 mm 513 W/m2
09:59 26.7 °C 22.9 °C 1020.2 hPa WSW 0.8 km/h 11.3 km/h 79.8% 0 mm 418 W/m2
10:04 26.9 °C 23 °C 1020.2 hPa SW 1 km/h 11.3 km/h 79% 0 mm 304 W/m2
10:09 27.1 °C 23 °C 1020.2 hPa SW 0.6 km/h 9.7 km/h 78.5% 0 mm 457 W/m2
10:14 27.1 °C 22.9 °C 1019.9 hPa SW 0.6 km/h 9.7 km/h 77.9% 0 mm 279 W/m2
10:19 27.1 °C 22.8 °C 1020.2 hPa SW 1.8 km/h 9.7 km/h 77.3% 0 mm 441 W/m2
10:24 27.2 °C 22.9 °C 1020.2 hPa SW 0.6 km/h 9.7 km/h 77.7% 0 mm 301 W/m2
10:29 27.3 °C 23.1 °C 1020.2 hPa SW 0.6 km/h 9.7 km/h 77.9% 0 mm 316 W/m2
10:34 27.4 °C 23.1 °C 1020.2 hPa SW 3.1 km/h 9.7 km/h 77.3% 0 mm 322 W/m2
10:39 27.4 °C 22.8 °C 1020.2 hPa Calm   9.7 km/h 76.2% 0 mm 865 W/m2
10:44 27.4 °C 22.9 °C 1020.2 hPa SW 1 km/h 11.3 km/h 76.3% 0 mm 865 W/m2
10:49 27.5 °C 23.1 °C 1020.2 hPa SW 1.8 km/h 11.3 km/h 76.9% 0 mm 810 W/m2
10:54 27.8 °C 23.4 °C 1020.2 hPa SW 0.6 km/h 11.3 km/h 77% 0 mm 821 W/m2
10:59 28.1 °C 23.2 °C 1020.2 hPa SW 2.3 km/h 11.3 km/h 75% 0 mm 439 W/m2
11:04 28.2 °C 23.3 °C 1020.2 hPa WSW 2.3 km/h 14.5 km/h 74.9% 0 mm 369 W/m2
11:09 28.3 °C 23.5 °C 1020.2 hPa WSW 1 km/h 14.5 km/h 75.3% 0 mm 362 W/m2
11:14 28.3 °C 23.6 °C 1020.2 hPa WSW 2.4 km/h 14.5 km/h 75.7% 0 mm 362 W/m2
11:19 28.3 °C 23.6 °C 1019.9 hPa SW 1 km/h 14.5 km/h 75.3% 0 mm 540 W/m2
11:24 28.4 °C 23.5 °C 1019.9 hPa SW 2.4 km/h 16.1 km/h 74.8% 0 mm 399 W/m2
11:29 28.5 °C 23.4 °C 1019.9 hPa SW 2.7 km/h 16.1 km/h 74.3% 0 mm 752 W/m2
11:34 28.6 °C 23.6 °C 1019.9 hPa SW 2.6 km/h 16.1 km/h 74.3% 0 mm 684 W/m2
11:39 28.6 °C 23.3 °C 1019.9 hPa South 0.3 km/h 11.3 km/h 73% 0 mm 682 W/m2
11:44 28.7 °C 23.5 °C 1019.9 hPa SSW 1.1 km/h 11.3 km/h 73.6% 0 mm 613 W/m2
11:49 28.7 °C 23.5 °C 1019.9 hPa SSW 1 km/h 11.3 km/h 73.6% 0 mm 244 W/m2
11:54 28.7 °C 23.5 °C 1019.9 hPa SSW 1.6 km/h 11.3 km/h 73.6% 0 mm 788 W/m2
11:59 28.6 °C 23.1 °C 1019.9 hPa SSW 1 km/h 11.3 km/h 72.3% 0 mm 788 W/m2
12:00 28.5 °C 23.2 °C 1019.9 hPa Calm   11.3 km/h 73% 0 mm 260 W/m2
12:09 28.4 °C 23.6 °C 1019.9 hPa SW 1.1 km/h 8 km/h 75.2% 0 mm 1048 W/m2
12:14 28.6 °C 23.6 °C 1019.9 hPa South 1.1 km/h 8 km/h 74.2% 0 mm 1048 W/m2
12:19 28.8 °C 23.8 °C 1019.9 hPa SW 1.3 km/h 8 km/h 74% 0 mm 1005 W/m2
12:24 29.1 °C 23.9 °C 1019.9 hPa SW 2.7 km/h 9.7 km/h 73.4% 0 mm 995 W/m2
12:29 29.4 °C 24 °C 1019.9 hPa SSW 2.3 km/h 9.7 km/h 72.5% 0 mm 995 W/m2
12:34 29.6 °C 23.9 °C 1019.9 hPa SW 2.6 km/h 11.3 km/h 71.7% 0 mm 1157 W/m2
12:39 29.8 °C 24.1 °C 1019.9 hPa SW 1.9 km/h 11.3 km/h 71.5% 0 mm 1157 W/m2
12:44 29.9 °C 24.2 °C 1019.9 hPa SW 1.6 km/h 11.3 km/h 71.7% 0 mm 995 W/m2
12:49 30.1 °C 24.1 °C 1019.9 hPa SSW 1.3 km/h 11.3 km/h 70.3% 0 mm 1069 W/m2
12:54 30.3 °C 24 °C 1019.5 hPa SSW 1.3 km/h 11.3 km/h 69.2% 0 mm 991 W/m2
12:59 30.3 °C 23.8 °C 1019.5 hPa SW 2.6 km/h 11.3 km/h 68.4% 0 mm 1071 W/m2
13:04 30.3 °C 23.9 °C 1019.5 hPa SW 0.2 km/h 11.3 km/h 69% 0 mm 348 W/m2
13:09 30.3 °C 24.2 °C 1019.5 hPa SW 2.3 km/h 8 km/h 70% 0 mm 621 W/m2
13:14 30.2 °C 23.9 °C 1019.5 hPa SW 1.3 km/h 9.7 km/h 69.2% 0 mm 278 W/m2
13:19 30.1 °C 23.8 °C 1019.5 hPa SSW 1.1 km/h 9.7 km/h 69.2% 0 mm 360 W/m2
13:24 29.9 °C 23.8 °C 1019.5 hPa SW 1.6 km/h 14.5 km/h 69.7% 0 mm 958 W/m2
13:29 30 °C 24 °C 1019.5 hPa SW 1.6 km/h 14.5 km/h 70.2% 0 mm 958 W/m2
13:34 30.1 °C 24 °C 1019.5 hPa SW 1.9 km/h 14.5 km/h 70% 0 mm 239 W/m2
13:39 30.1 °C 23.9 °C 1019.5 hPa SW 2.7 km/h 11.3 km/h 69.8% 0 mm 949 W/m2
13:44 30.1 °C 24 °C 1019.5 hPa SW 1.4 km/h 11.3 km/h 69.8% 0 mm 939 W/m2
13:49 30.2 °C 23.9 °C 1019.5 hPa SW 1.6 km/h 11.3 km/h 69.3% 0 mm 858 W/m2
13:54 30.3 °C 24.4 °C 1019.5 hPa SW 1.8 km/h 11.3 km/h 70.6% 0 mm 860 W/m2
13:59 30.6 °C 24.3 °C 1019.5 hPa WSW 1.8 km/h 11.3 km/h 69.5% 0 mm 893 W/m2
14:04 30.7 °C 24.3 °C 1019.2 hPa WSW 1.9 km/h 14.5 km/h 68.7% 0 mm 912 W/m2
14:09 30.9 °C 24.6 °C 1019.2 hPa WSW 1.3 km/h 14.5 km/h 68.9% 0 mm 918 W/m2
14:14 31.1 °C 24.3 °C 1019.2 hPa WSW 3.4 km/h 14.5 km/h 67.3% 0 mm 918 W/m2
14:19 31.1 °C 24.1 °C 1019.5 hPa WSW 3.4 km/h 14.5 km/h 66.3% 0 mm 250 W/m2
14:24 31.2 °C 24.2 °C 1019.5 hPa WSW 2.7 km/h 14.5 km/h 66.5% 0 mm 946 W/m2
14:29 31.3 °C 24.2 °C 1019.2 hPa WSW 2.6 km/h 14.5 km/h 65.8% 0 mm 918 W/m2
14:34 31.3 °C 24 °C 1019.2 hPa SW 1.3 km/h 14.5 km/h 65% 0 mm 283 W/m2
14:39 31.2 °C 24.2 °C 1019.2 hPa WSW 2.6 km/h 20.9 km/h 66.2% 0 mm 905 W/m2
14:44 31.2 °C 24.4 °C 1019.2 hPa WSW 3.4 km/h 20.9 km/h 67.5% 0 mm 874 W/m2
14:49 31.3 °C 23.9 °C 1019.2 hPa WSW 3.9 km/h 20.9 km/h 64.7% 0 mm 861 W/m2
14:54 31.4 °C 24.3 °C 1019.2 hPa SW 3.2 km/h 20.9 km/h 65.9% 0 mm 926 W/m2
14:59 31.4 °C 24.4 °C 1019.2 hPa SW 2.6 km/h 20.9 km/h 66.5% 0 mm 914 W/m2
15:04 31.4 °C 24.4 °C 1019.2 hPa SSW 2.6 km/h 20.9 km/h 66.5% 0 mm 914 W/m2
15:09 31.2 °C 24.5 °C 1019.2 hPa South 3.9 km/h 11.3 km/h 67.4% 0 mm 914 W/m2
15:14 30.9 °C 24.2 °C 1019.2 hPa South 4.5 km/h 11.3 km/h 67.4% 0 mm 881 W/m2
15:19 30.8 °C 24.3 °C 1018.8 hPa South 1.9 km/h 11.3 km/h 68.4% 0 mm 830 W/m2
15:24 30.8 °C 24.3 °C 1018.8 hPa SSE 2.6 km/h 11.3 km/h 68.3% 0 mm 872 W/m2
15:29 30.7 °C 24.1 °C 1018.8 hPa South 3.1 km/h 11.3 km/h 68% 0 mm 796 W/m2
15:34 30.6 °C 24.2 °C 1018.8 hPa South 2.1 km/h 11.3 km/h 68.8% 0 mm 784 W/m2
15:39 30.6 °C 24.2 °C 1018.8 hPa SSE 1.4 km/h 9.7 km/h 69% 0 mm 738 W/m2
15:44 30.6 °C 24.6 °C 1018.8 hPa SSE 0.5 km/h 9.7 km/h 70.5% 0 mm 828 W/m2
15:49 30.8 °C 24.7 °C 1018.8 hPa SW 3.7 km/h 14.5 km/h 70% 0 mm 751 W/m2
15:54 30.9 °C 24.4 °C 1018.8 hPa SSW 2.1 km/h 14.5 km/h 68.5% 0 mm 751 W/m2
15:59 30.8 °C 24.3 °C 1018.8 hPa SSW 2.7 km/h 14.5 km/h 68.4% 0 mm 751 W/m2
16:00 30.8 °C 24.7 °C 1018.8 hPa SW 6.4 km/h 14.5 km/h 70% 0 mm 670 W/m2
16:09 30.8 °C 24.2 °C 1018.8 hPa SSE 3.4 km/h 11.3 km/h 68% 0 mm 687 W/m2
16:14 30.7 °C 24.3 °C 1018.8 hPa SSW 2.9 km/h 20.9 km/h 68.9% 0 mm 682 W/m2
16:19 30.7 °C 24.6 °C 1018.8 hPa South 1 km/h 20.9 km/h 69.9% 0 mm 578 W/m2
16:24 30.7 °C 24.4 °C 1018.8 hPa South 2.3 km/h 20.9 km/h 69.4% 0 mm 158 W/m2
16:29 30.6 °C 24.4 °C 1018.8 hPa SSW 2.4 km/h 20.9 km/h 69.5% 0 mm 206 W/m2
16:34 30.5 °C 24.4 °C 1018.8 hPa South 3.2 km/h 20.9 km/h 70% 0 mm 156 W/m2
16:39 30.4 °C 24.3 °C 1018.8 hPa SW 4 km/h 19.3 km/h 70% 0 mm 120 W/m2
16:44 30.3 °C 24.3 °C 1018.8 hPa South 2.7 km/h 19.3 km/h 70% 0 mm 137 W/m2
16:49 30.2 °C 24.3 °C 1018.5 hPa SSW 3.2 km/h 19.3 km/h 70.4% 0 mm 142 W/m2
16:54 30.1 °C 24.3 °C 1018.5 hPa SSW 1.1 km/h 19.3 km/h 71.1% 0 mm 120 W/m2
16:59 30.2 °C 24.6 °C 1018.5 hPa South 1.3 km/h 19.3 km/h 72% 0 mm 121 W/m2
17:04 30.2 °C 24.4 °C 1018.5 hPa SSW 2.6 km/h 19.3 km/h 71.2% 0 mm 76 W/m2
17:09 30.2 °C 24.4 °C 1018.5 hPa SW 4 km/h 14.5 km/h 71.3% 0 mm 74 W/m2
17:14 30.2 °C 24.2 °C 1018.5 hPa SW 2.9 km/h 14.5 km/h 70.3% 0 mm 72 W/m2
17:19 30.3 °C 24.4 °C 1018.5 hPa SW 2.4 km/h 14.5 km/h 71% 0 mm 76 W/m2
17:24 30.3 °C 24.4 °C 1018.5 hPa SSW 3.9 km/h 14.5 km/h 70.9% 0 mm 65 W/m2
17:29 30.2 °C 24.2 °C 1018.5 hPa South 4.3 km/h 14.5 km/h 70.2% 0 mm 69 W/m2
17:34 30.1 °C 24.2 °C 1018.5 hPa SW 2.4 km/h 14.5 km/h 70.6% 0 mm 63 W/m2
17:39 30.1 °C 24.3 °C 1018.5 hPa SSW 1 km/h 11.3 km/h 71.5% 0 mm 60 W/m2
17:44 30.1 °C 24.3 °C 1018.5 hPa SSW 0.6 km/h 11.3 km/h 71.5% 0 mm 67 W/m2
17:48 30.1 °C 24.4 °C 1018.5 hPa SSW 0.8 km/h 11.3 km/h 72% 0 mm 60 W/m2
18:00 29.9 °C 24.1 °C 1018.5 hPa SSW 1.6 km/h 14.5 km/h 71% 0 mm 57 W/m2
18:30 29.3 °C 23.9 °C 1018.5 hPa South 1.6 km/h 9.7 km/h 73% 0 mm 50 W/m2
19:00 28.7 °C 23.6 °C 1018.5 hPa SSW 3.2 km/h 19.3 km/h 74% 0 mm 43 W/m2
19:30 28.3 °C 23.4 °C 1018.5 hPa South 1.6 km/h 11.3 km/h 75% 0 mm 35 W/m2
20:04 27.8 °C 23 °C 1018.5 hPa SW 1.3 km/h 8 km/h 75% 0 mm 12 W/m2
20:09 27.7 °C 22.9 °C 1018.5 hPa Calm   8 km/h 75% 0 mm 12 W/m2
20:14 27.7 °C 22.9 °C 1018.5 hPa WSW 1.1 km/h 11.3 km/h 75.6% 0 mm 11 W/m2
20:19 27.6 °C 22.9 °C 1018.5 hPa WSW 0.2 km/h 11.3 km/h 76% 0 mm 7 W/m2
20:24 27.4 °C 22.8 °C 1018.5 hPa Calm   11.3 km/h 76% 0 mm 5 W/m2
20:29 27.4 °C 22.8 °C 1018.5 hPa WSW 0.3 km/h 11.3 km/h 76% 0 mm 0 W/m2
20:34 27.3 °C 22.7 °C 1018.5 hPa WSW 0.5 km/h 11.3 km/h 76% 0 mm 0 W/m2
20:39 27.2 °C 22.7 °C 1018.5 hPa WSW 0.2 km/h 4.8 km/h 76.6% 0 mm 0 W/m2
20:44 27.1 °C 22.7 °C 1018.5 hPa Calm   4.8 km/h 77% 0 mm 0 W/m2
20:49 26.9 °C 22.6 °C 1018.8 hPa Calm   4.8 km/h 77% 0 mm 0 W/m2
20:54 26.8 °C 22.5 °C 1018.8 hPa WSW 0.2 km/h 8 km/h 77% 0 mm 0 W/m2
20:59 26.7 °C 22.4 °C 1018.8 hPa WSW 0.6 km/h 8 km/h 77% 0 mm 0 W/m2
21:04 26.7 °C 22.4 °C 1018.8 hPa Calm   8 km/h 77.5% 0 mm 0 W/m2
21:09 26.6 °C 22.4 °C 1018.8 hPa Calm     78% 0 mm 0 W/m2
21:14 26.4 °C 22.3 °C 1018.8 hPa WSW 0.2 km/h 3.2 km/h 78% 0 mm 0 W/m2
21:19 26.3 °C 22.2 °C 1018.8 hPa WSW 0.3 km/h 6.4 km/h 78% 0 mm 0 W/m2
21:24 26.2 °C 22.2 °C 1018.8 hPa WSW 0.6 km/h 6.4 km/h 78.3% 0 mm 0 W/m2
21:29 26.1 °C 22.2 °C 1018.8 hPa WSW 2.6 km/h 11.3 km/h 78.9% 0 mm 0 W/m2
21:34 26 °C 22.1 °C 1018.8 hPa WSW 1.4 km/h 11.3 km/h 79% 0 mm 0 W/m2
21:39 25.9 °C 22 °C 1018.8 hPa WSW 0.6 km/h 8 km/h 79% 0 mm 0 W/m2
21:44 25.8 °C 21.9 °C 1018.8 hPa Calm   8 km/h 79% 0 mm 0 W/m2
21:49 25.8 °C 21.9 °C 1018.8 hPa WSW 0.5 km/h 9.7 km/h 79% 0 mm 0 W/m2
21:54 25.7 °C 22 °C 1018.8 hPa WSW 0.3 km/h 9.7 km/h 80% 0 mm 0 W/m2
21:59 25.6 °C 21.9 °C 1018.8 hPa WSW 1.4 km/h 9.7 km/h 80% 0 mm 0 W/m2
22:04 25.6 °C 21.8 °C 1018.8 hPa WSW 0.6 km/h 9.7 km/h 80% 0 mm 0 W/m2
22:09 25.5 °C 21.8 °C 1018.8 hPa Calm   8 km/h 80% 0 mm 0 W/m2
22:14 25.4 °C 21.7 °C 1019.2 hPa WSW 0.2 km/h 8 km/h 80% 0 mm 0 W/m2
22:19 25.3 °C 21.6 °C 1019.2 hPa WSW 0.2 km/h 8 km/h 80% 0 mm 0 W/m2
22:24 25.3 °C 21.6 °C 1019.2 hPa Calm   8 km/h 80.3% 0 mm 0 W/m2
22:29 25.2 °C 21.7 °C 1018.8 hPa WSW 0.2 km/h 8 km/h 80.8% 0 mm 0 W/m2
22:34 25.1 °C 21.6 °C 1019.2 hPa WSW 1.4 km/h 8 km/h 81% 0 mm 0 W/m2
22:39 25.1 °C 21.6 °C 1019.2 hPa Calm   4.8 km/h 81% 0 mm 0 W/m2
22:44 25 °C 21.5 °C 1019.2 hPa Calm   4.8 km/h 81% 0 mm 0 W/m2
22:49 24.9 °C 21.4 °C 1019.2 hPa WSW 0.2 km/h 6.4 km/h 81% 0 mm 0 W/m2
22:54 24.9 °C 21.4 °C 1019.2 hPa Calm   6.4 km/h 81% 0 mm 0 W/m2
22:59 24.8 °C 21.4 °C 1019.2 hPa Calm   6.4 km/h 81.4% 0 mm 0 W/m2
23:04 24.8 °C 21.5 °C 1019.2 hPa Calm   6.4 km/h 82% 0 mm 0 W/m2
23:09 24.7 °C 21.4 °C 1018.8 hPa Calm     82% 0 mm 0 W/m2
23:14 24.7 °C 21.4 °C 1019.2 hPa Calm     82% 0 mm 0 W/m2
23:19 24.6 °C 21.3 °C 1019.2 hPa Calm     82% 0 mm 0 W/m2
23:24 24.5 °C 21.3 °C 1018.8 hPa Calm   1.6 km/h 82% 0 mm 0 W/m2
23:29 24.4 °C 21.2 °C 1018.8 hPa Calm   1.6 km/h 82% 0 mm 0 W/m2
23:34 24.4 °C 21.1 °C 1018.8 hPa Calm   1.6 km/h 82% 0 mm 0 W/m2
23:39 24.3 °C 21.2 °C 1018.8 hPa Calm     82.9% 0 mm 0 W/m2
23:44 24.3 °C 21.2 °C 1018.8 hPa Calm     83% 0 mm 0 W/m2
23:49 24.2 °C 21.2 °C 1018.8 hPa Calm     83% 0 mm 0 W/m2
23:54 24.2 °C 21.1 °C 1018.8 hPa Calm     83% 0 mm 0 W/m2
23:59 24.1 °C 21 °C 1018.8 hPa Calm     83% 0 mm 0 W/m2
Hartford County Weather
Compliments of Weather Underground - 2 mb